www.pogodaiklimat.ru

Погода и климат >> Архив погоды >> Россия >> Камчатский край >> Пущино


ПОГОДА в Пущино

  • Прогноз погоды в Пущино
  • Монитор погоды в Пущино

АРХИВ ПОГОДЫ в Пущино

Время (UTC), дата Ветер
(напр.,м/с)
 
Видим.   Явления Облачность Т
(С)
Тd
(С)
f
(%)
Тe
(С)
Тes
(С)
Комфортность P
(гПа)
Po
(гПа)
Тmin
(С)
Tmax
(С)
R
(мм)
R24
(мм)
S
(см)
09 17.04 СВ 2 10 км 10/8 600 м
[Sc Ac trans]
+1.2 -5.7 60 -2 -2 1018.9 981.3 +3.6 0.0
12 17.04 С 1 10 км 10/8 600 м
[Sc Ac trans]
-0.3 -6.5 63 -2 -2 1019.9 982.0
15 17.04 С 1 10 км 10/8 600 м
[Sc Ac trans]
-1.3 -7.4 63 -3 -3 1022.0 984.0
18 17.04 ЮВ 1 10 км 10/5 1000 м
[Sc Ac trans Ci fib]
-3.3 -6.4 79 -5 -5 1023.7 985.3
21 17.04 штиль 0 10 км 10/5 1000 м
[Sc Ac trans Ci fib]
+0.3 -6.8 59 -0 -0 1023.1 985.3 -4.0 126
00 18.04 В 2 20 км 10/0
[Ci fib]
+3.2 -8.2 43 +1 +1 1022.7 985.3
03 18.04 В 1 20 км 10/0
[Ci fib]
+5.2 -9.0 35 +5 +5 1022.5 985.3
06 18.04 штиль 0 20 км 10/0
[Ci fib]
+7.1 -9.3 30 +7 +7 1022.2 985.3
09 18.04 штиль 0 20 км 10/0
[Ci fib]
0.0 -5.8 65 -1 -1 1024.6 986.7 +8.7
12 18.04 З 3 20 км 10/0
[Ci fib]
+1.1 -5.8 60 -3 -3 1025.8 988.0
15 18.04 ЮЗ 3 20 км 10/0
[Ci fib]
-0.3 -5.9 66 -5 -5 1026.0 988.0
18 18.04 ЮЗ 3 20 км 1/0
[Ci fib]
-1.4 -6.4 69 -6 -6 1025.4 987.2
21 18.04 З 3 20 км 10/0
[Ci fib]
+0.3 -6.1 62 -4 -2 1025.8 987.8 -2.1 123
00 19.04 В 1 20 км 10/0
[Ci fib]
+5.5 -7.0 40 +5 +5 1026.6 989.3
03 19.04 В 2 20 км 10/0
[Ci fib]
+7.4 -8.2 32 +6 +6 1025.0 988.0
06 19.04 В 1 20 км 10/0
[Ci fib]
+8.7 -8.8 28 +9 +9 1024.8 988.0
09 19.04 З 2 20 км 3/0
[Ci fib]
+2.7 -6.4 51 0 0 1025.6 988.0 +9.8
12 19.04 ЮЗ 4 20 км ясно +2.2 -6.1 54 -2 -2 1027.0 989.3
15 19.04 ЮЗ 2 20 км ясно +0.5 -5.9 62 -3 -3 1027.3 989.3
18 19.04 ЮЗ 5 20 км ясно -0.6 -6.2 66 -6 -6 1027.4 989.3
21 19.04 ЮЗ 5 20 км ясно +0.5 -6.0 62 -5 -3 1027.1 989.1 -1.1 118
00 20.04 ЮЗ 4 20 км ясно +4.3 -6.6 45 +1 +8 1026.7 989.3
03 20.04 ЮЗ 4 20 км ясно +6.9 -7.1 36 +4 +12 1025.0 988.0
06 20.04 ЮЗ 3 20 км 1/0
[Ci fib]
+7.1 -6.3 38 +5 +8 1025.0 988.0
09 20.04 ЮЗ 5 20 км ясно +3.7 -5.8 50 -1 -1 1025.5 988.0 +7.7
12 20.04 ЮЗ 5
{11}
20 км ясно +1.7 -6.1 56 -3 -3 1025.8 988.0
15 20.04 ЮЗ 5
{10}
20 км ясно -0.2 -6.0 65 -6 -6 1026.0 988.0
18 20.04 ЮЗ 5
{11}
20 км ясно -1.6 -6.0 72 -8 -8 1026.2 988.0
21 20.04 ЮЗ 5 20 км ясно -0.5 -5.9 67 -6 -4 1024.8 986.7 -1.9 113
00 21.04 ЮЗ 4
{12}
20 км ясно +2.5 -5.9 54 -2 +6 1023.7 986.1
03 21.04 ЮЗ 4 20 км 1/0
[Ci fib]
+4.8 -5.8 46 +1 +8 1022.5 985.3
06 21.04 ЮЗ 4 20 км ясно +5.4 -5.9 44 +2 +5 1022.4 985.3
09 21.04 ЮЗ 5 20 км ясно +2.6 -5.8 54 -2 -2 1022.8 985.3 +5.6
12 21.04 ЮЗ 5-10
{11}
20 км ясно +0.2 -6.9 59 -5 -5 1023.1 985.2
15 21.04 ЮЗ 4
{12}
20 км ясно -1.4 -7.1 65 -7 -7 1024.8 986.7
18 21.04 ЮЗ 4
{12}
20 км ясно -2.4 -7.5 68 -8 -8 1025.0 986.7
21 21.04 ЮЗ 5 20 км 4/1 1000 м
[Sc Ci fib]
-0.1 -7.1 59 -6 -4 1023.1 985.1 -2.4 108
00 22.04 ЮЗ 5 20 км 10/1 1000 м
[Sc Ac trans]
+1.8 -7.0 52 -3 -3 1022.9 985.3
03 22.04 ЮЗ 4 20 км 10/1 1000 м
[Sc Ci fib]
+3.1 -7.4 46 -1 -1 1022.8 985.3
06 22.04 ЮЗ 3 20 км 6/0
[Ci fib]
+4.8 -6.7 43 +2 +3 1021.2 984.0
09 22.04 ЮЗ 3 20 км 10/1 1000 м
[Sc Ac trans Ci fib]
+2.8 -5.6 54 -1 -1 1021.4 984.0 +4.9
12 22.04 ЮЗ 3 20 км 10/0
[Ac trans]
+2.4 -4.8 59 -1 -1 1020.1 982.7
15 22.04 ЮЗ 2 20 км 10/0
[Ac As]
+1.9 -4.4 63 -1 -1 1020.2 982.7
18 22.04 С 1 20 км 10/0
[Ac trans]
+0.8 -4.1 70 -1 -1 1018.9 981.2
21 22.04 ЮВ 1 20 км 10/0
[Ac trans]
+1.2 -5.3 62 -0 +2 1019.1 981.5 +0.6 106
00 23.04 ЮВ 2 20 км 10/3 1000 м
[Sc Ac trans]
+2.7 -5.4 55 0 0 1018.7 981.3
03 23.04 Ю 1 20 км 10/3 1000 м
[Sc Ac trans]
+4.7 -6.5 44 +4 +4 1017.0 980.0
06 23.04 ЮЗ 4 20 км 10/1 1000 м
[Sc Ac As]
+2.6 -6.3 52 -2 -2 1017.3 980.0
09 23.04 З 2 20 км 10/3 1000 м
[Sc Ac trans]
+1.3 -6.5 56 -2 -2 1018.9 981.3 +5.4
12 23.04 З 1 20 км 10 баллов +0.6 -6.7 58 -1 -1 1019.0 981.3
15 23.04 З 1 20 км 10/0
[Ac trans]
-0.4 -5.4 69 -2 -2 1017.7 980.0
18 23.04 З 1 20 км 10 баллов -1.8 -5.3 77 -4 -4 1019.3 981.3
21 23.04 З 1 20 км 10/0
[Ac As]
+0.7 -5.0 66 -1 +1 1017.6 980.0 -2.1 103
00 24.04 В 1 20 км 10 баллов +3.6 -6.4 48 +3 +3 1017.2 980.0
03 24.04 В 2 20 км 10 баллов +4.4 -6.8 44 +2 +2 1017.1 980.0
06 24.04 В 2 20 км 10 баллов +4.9 -6.6 43 +3 +3 1015.7 978.7

 

Местоположение метеостанции Пущино (Камчатский край, Россия): широта 54.18 долгота 158.00 высота над уровнем моря 303 м.

В архиве по умолчанию представлена погода в Пущино за последнюю неделю. Архивные данные за месяц целиком и за предыдущие месяцы, начиная с января 2011 года, Вы можете получить, выбрав интересующий диапазон дат из раскрывающегося списка и нажав кнопку "Ввод!".


*Определитесь, кто Вы:
робот инопланетянин человек

Внимание! Время в таблицах - всемирное. Для получения местного времени необходимо прибавить поправку, которая равна 12 ч.

Смотрите также архив погоды в соседних городах и на ближайших метеорологических станциях:

Погода в Мильково (Камчатский край, Россия) (64 км)
Погода в Начиках (Камчатский край, Россия) (120 км)
Погода в Долиновке (Камчатский край, Россия) (123 км)
Погода в Сосновке (Камчатский край, Россия) (124 км)
Погода в Семячике (Камчатский край, Россия) (124 км)
Погода в Петропавловск-Камч. 2 (Камчатский край, Россия) (127 км)
Погода в Соболево (Камчатский край, Россия) (137 км)
Погода в Петропавловск-Камчатском (Камчатский край, Россия) (151 км)
Погода в Петропавловском Маяке (Камчатский край, Россия) (152 км)
Погода в Большерецке (Камчатский край, Россия) (188 км)

Пояснения к столбцам:

Ветер - указаны скорость ветра в м/с - средняя за 10 мин, порывы в срок и между сроками (в фигурных скобках) и направление, откуда дует ветер: С - северный, СВ - северо-восточный, В - восточный, ЮВ - юго-восточный, Ю - южный, ЮЗ - юго-западный, З - западный, СЗ - северо-западный.
Видимость - горизонтальная дальность видимости в метрах или километрах. При видимости от 1 до 10 км при отсутствии осадков обычно наблюдается дымка, при ухудшении видимости до 1 км и менее - туман. В сухую погоду видимость может ухудшаться дымом, пылью или мглою.
Явления - указаны атмосферные явления, наблюдавшиеся в срок или в последний час перед сроком; фигурными скобками обозначены явления, наблюдавшиеся между сроками (за 1-3 часа до срока); квадратными скобками обозначены град или гололедные отложения с указанием их диаметра в мм.
Облачность - указаны через наклонную черту общая и нижняя облачность в баллах и высота нижней границы облаков в метрах; квадратными скобками обозначены формы облаков: Ci - перистые, Cs - перисто-слоистые, Cc - перисто-кучевые, Ac - высококучевые, As - высокослоистые, Sc - слоисто-кучевые, Ns - слоисто-дождевые, Cu - кучевые, Cb - кучево-дождевые. Подробнее классификацию облаков см. в Атласе облаков (PDF).
T - Температура воздуха - температура, измеренная на высоте 2 м над землей.
Td - Температура точки росы - температура, при понижении до которой содержащийся в воздухе водяной пар достигнет насыщения.
f - Относительная влажность воздуха - влажноcть воздуха, измеренная на высоте 2 м над землей.
Te - Эффективная температура - температура, которую ощущает одетый по сезону человек в тени. Характеристика душности погоды. При расчете учитывается влияние влажности воздуха и скорости ветра на теплоощущения человека.
Tes - Эффективная температура на солнце - температура, которую ощущает человек, с поправкой на солнечный нагрев. Характеристика знойности погоды. Зависит от высоты солнца над горизонтом, облачности и скорости ветра. Ночью, в пасмурную погоду, а также при ветре 12 м/с и более поправка равна нулю.
P - Атмосферное давление - приведенное к уровню моря атмосферное давление.
Po - Атмосферное давление - измеренное на уровне метеостанции атмосферное давление.
Tmin - Минимальная температура - минимум температуры воздуха на высоте 2 м над землей.
Tmax - Максимальная температура - максимум температуры воздуха на высоте 2 м над землей.
R - Количество осадков - Количество выпавших осадков за период времени, мм. При наведении курсора мыши на число - период времени, за который выпало указанное количество осадков.
R24 - Количество осадков - Количество выпавших осадков за 24 часа, мм.
S - Снежный покров - Высота снежного покрова, см. При наведении курсора мыши на число - состояние снежного покрова и степень покрытия местности в баллах.